Colby, KS

4:52 PM CDT on April 25, 2017 (GMT -0500)
Shaltz

Weather History for KCBK - April, 2014

Change the Weather History Date:

Saturday, April 5, 2014

  Actual Average (KGLD) Record (KGLD)
Temperature  
Mean Temperature 48 °F -  
Max Temperature 60 °F 61 °F 86 °F (1932)
Min Temperature 35 °F 31 °F 18 °F (1945)
Degree Days  
Heating Degree Days 18    
Moisture  
Dew Point 34 °F    
Average Humidity 62    
Maximum Humidity 87    
Minimum Humidity 34    
Precipitation  
Precipitation 0.00 in - - ()
Sea Level Pressure  
Sea Level Pressure 29.92 in    
Wind  
Wind Speed 16 mph (South)    
Max Wind Speed 28 mph    
Max Gust Speed 36 mph    
Visibility 10 miles    
Events      
Averages and records for this station are not official NWS values.
T = Trace of Precipitation, MM = Missing Value Source: NWS Daily Summary

Daily Weather History Graph

Daily Weather History Graph

Search for Another Location

Airport or City:

Trip Planner

Search our weather history database for the weather conditions in past years. The results will help you decide how hot, cold, wet, or windy it might be!

Date:

Astronomy

Apr. 05, 2014 Rise Set
Actual Time 7:22 AM CDT 8:12 PM CDT
Civil Twilight 6:54 AM CDT 8:39 PM CDT
Nautical Twilight 6:22 AM CDT 9:11 PM CDT
Astronomical Twilight 5:49 AM CDT 9:45 PM CDT
Moon 11:32 AM CDT (4/5) 1:22 AM CDT (4/5)
Length of Visible Light 13h 44m
Length of Day
12h 49m
Waxing Crescent, 34% of the Moon is Illuminated
Apr 5
Waxing Crescent
Apr 7
First Quarter
Apr 15
Full
Apr 22
Last Quarter
Apr 29
New

Hourly Weather History & Observations

Time (CDT) Temp. Windchill Dew Point Humidity Pressure Visibility Wind Dir Wind Speed Gust Speed Precip Events Conditions
12:10 AM 37.4 °F 30.8 °F 32.0 °F 81% 30.03 in 10.0 mi SE 9.2 mph - N/A   Clear
12:30 AM 37.4 °F 30.8 °F 32.0 °F 81% 30.02 in 10.0 mi SE 9.2 mph - N/A   Clear
12:50 AM 35.6 °F 28.0 °F 32.0 °F 87% 30.02 in 10.0 mi SSE 10.4 mph - N/A   Clear
1:10 AM 35.6 °F 27.1 °F 32.0 °F 87% 30.02 in 10.0 mi SSE 12.7 mph - N/A   Clear
1:30 AM 37.4 °F 29.3 °F 32.0 °F 81% 30.02 in 10.0 mi SSE 12.7 mph - N/A   Clear
1:50 AM 37.4 °F 29.3 °F 32.0 °F 81% 30.02 in 10.0 mi SSE 12.7 mph - N/A   Clear
2:10 AM 37.4 °F 28.9 °F 32.0 °F 81% 30.01 in 10.0 mi SSE 13.8 mph - N/A   Clear
2:30 AM 37.4 °F 28.5 °F 32.0 °F 81% 30.01 in 10.0 mi SSE 15.0 mph - N/A   Clear
2:50 AM 37.4 °F 27.8 °F 32.0 °F 81% 30.00 in 10.0 mi SSE 17.3 mph - N/A   Clear
3:10 AM 39.2 °F 30.2 °F 32.0 °F 75% 29.99 in 10.0 mi SSE 17.3 mph 26.5 mph N/A   Scattered Clouds
3:30 AM 39.2 °F 29.8 °F 32.0 °F 75% 29.98 in 10.0 mi SSE 18.4 mph 25.3 mph N/A   Scattered Clouds
3:50 AM 39.2 °F 28.5 °F 32.0 °F 75% 29.97 in 10.0 mi SSE 24.2 mph 29.9 mph N/A   Scattered Clouds
4:10 AM 39.2 °F 28.5 °F 30.2 °F 70% 29.97 in 10.0 mi SSE 24.2 mph 32.2 mph N/A   Scattered Clouds
4:30 AM 39.2 °F 29.8 °F 30.2 °F 70% 29.96 in 10.0 mi SSE 18.4 mph 26.5 mph N/A   Scattered Clouds
4:50 AM 39.2 °F 29.6 °F 30.2 °F 70% 29.95 in 10.0 mi SSE 19.6 mph 26.5 mph N/A   Mostly Cloudy
5:10 AM 39.2 °F 29.8 °F 30.2 °F 70% 29.95 in 10.0 mi SSE 18.4 mph 27.6 mph N/A   Mostly Cloudy
5:30 AM 37.4 °F 27.2 °F 30.2 °F 75% 29.94 in 10.0 mi South 19.6 mph 25.3 mph N/A   Clear
5:50 AM 37.4 °F 27.8 °F 30.2 °F 75% 29.93 in 10.0 mi South 17.3 mph 25.3 mph N/A   Clear
6:10 AM 37.4 °F 27.5 °F 30.2 °F 75% 29.93 in 10.0 mi South 18.4 mph 21.9 mph N/A   Clear
6:30 AM 35.6 °F 25.5 °F 30.2 °F 81% 29.93 in 10.0 mi South 17.3 mph 24.2 mph N/A   Clear
6:50 AM 35.6 °F 25.9 °F 30.2 °F 81% 29.93 in 10.0 mi South 16.1 mph 21.9 mph N/A   Clear
7:10 AM 35.6 °F 26.2 °F 30.2 °F 81% 29.92 in 10.0 mi South 15.0 mph 23.0 mph N/A   Clear
7:30 AM 35.6 °F 27.1 °F 30.2 °F 81% 29.93 in 10.0 mi South 12.7 mph 20.7 mph N/A   Clear
7:50 AM 35.6 °F 27.1 °F 30.2 °F 81% 29.93 in 10.0 mi South 12.7 mph 19.6 mph N/A   Clear
8:10 AM 35.6 °F 27.5 °F 30.2 °F 81% 29.93 in 10.0 mi South 11.5 mph - N/A   Clear
8:30 AM 37.4 °F 28.5 °F 32.0 °F 81% 29.93 in 10.0 mi South 15.0 mph 20.7 mph N/A   Clear
8:50 AM 39.2 °F 30.8 °F 32.0 °F 75% 29.93 in 10.0 mi South 15.0 mph 20.7 mph N/A   Clear
9:10 AM 41.0 °F 33.1 °F 32.0 °F 70% 29.93 in 10.0 mi South 15.0 mph 20.7 mph N/A   Clear
9:30 AM 42.8 °F 35.1 °F 32.0 °F 66% 29.94 in 10.0 mi South 16.1 mph 21.9 mph N/A   Clear
9:50 AM 44.6 °F 36.9 °F 32.0 °F 61% 29.93 in 10.0 mi SSW 18.4 mph 21.9 mph N/A   Clear
10:10 AM 46.4 °F 39.0 °F 32.0 °F 57% 29.93 in 10.0 mi SSW 19.6 mph 26.5 mph N/A   Clear
10:30 AM 50.0 °F - 33.8 °F 54% 29.93 in 10.0 mi SSW 15.0 mph 24.2 mph N/A   Clear
10:50 AM 50.0 °F - 32.0 °F 50% 29.93 in 10.0 mi South 18.4 mph 27.6 mph N/A   Clear
11:10 AM 51.8 °F - 32.0 °F 47% 29.93 in 10.0 mi SSW 21.9 mph 28.8 mph N/A   Clear
11:30 AM 53.6 °F - 32.0 °F 44% 29.93 in 10.0 mi SSW 20.7 mph 29.9 mph N/A   Clear
11:50 AM 53.6 °F - 32.0 °F 44% 29.93 in 10.0 mi SSW 18.4 mph 29.9 mph N/A   Clear
12:10 PM 53.6 °F - 32.0 °F 44% 29.93 in 10.0 mi SSW 25.3 mph 31.1 mph N/A   Clear
12:30 PM 53.6 °F - 32.0 °F 44% 29.92 in 10.0 mi SSW 24.2 mph 29.9 mph N/A   Clear
12:50 PM 53.6 °F - 32.0 °F 44% 29.92 in 10.0 mi SSW 23.0 mph 34.5 mph N/A   Clear
1:10 PM 53.6 °F - 32.0 °F 44% 29.92 in 10.0 mi SSW 23.0 mph 29.9 mph N/A   Clear
1:30 PM 53.6 °F - 32.0 °F 44% 29.91 in 10.0 mi SSW 27.6 mph 33.4 mph N/A   Clear
1:50 PM 55.4 °F - 32.0 °F 41% 29.90 in 10.0 mi SSW 26.5 mph 32.2 mph N/A   Clear
2:10 PM 57.2 °F - 32.0 °F 38% 29.90 in 10.0 mi South 23.0 mph 35.7 mph N/A   Clear
2:30 PM 59.0 °F - 32.0 °F 36% 29.89 in 10.0 mi SSW 21.9 mph 33.4 mph N/A   Clear
2:50 PM 59.0 °F - 33.8 °F 39% 29.88 in 10.0 mi SSW 20.7 mph 34.5 mph N/A   Clear
3:10 PM 60.8 °F - 32.0 °F 34% 29.87 in 10.0 mi SSW 23.0 mph 29.9 mph N/A   Clear
3:30 PM 60.8 °F - 32.0 °F 34% 29.86 in 10.0 mi SW 26.5 mph 32.2 mph N/A   Clear
3:50 PM 60.8 °F - 32.0 °F 34% 29.86 in 10.0 mi SSW 27.6 mph 33.4 mph N/A   Clear
4:10 PM 60.8 °F - 33.8 °F 36% 29.85 in 10.0 mi SW 25.3 mph 31.1 mph N/A   Clear
4:30 PM 60.8 °F - 33.8 °F 36% 29.85 in 10.0 mi SW 24.2 mph 32.2 mph N/A   Clear
4:50 PM 60.8 °F - 33.8 °F 36% 29.86 in 10.0 mi SSW 20.7 mph 28.8 mph N/A   Clear
5:10 PM 60.8 °F - 33.8 °F 36% 29.86 in 10.0 mi South 17.3 mph 29.9 mph N/A   Clear
5:30 PM 60.8 °F - 33.8 °F 36% 29.86 in 10.0 mi SSW 18.4 mph 28.8 mph N/A   Clear
5:50 PM 59.0 °F - 33.8 °F 39% 29.86 in 10.0 mi South 19.6 mph 27.6 mph N/A   Clear
6:10 PM 59.0 °F - 33.8 °F 39% 29.86 in 10.0 mi SSW 16.1 mph 26.5 mph N/A   Clear
6:30 PM 59.0 °F - 33.8 °F 39% 29.86 in 10.0 mi SSW 18.4 mph 24.2 mph N/A   Clear
6:50 PM 57.2 °F - 33.8 °F 41% 29.86 in 10.0 mi South 12.7 mph 21.9 mph N/A   Clear
7:10 PM 55.4 °F - 35.6 °F 47% 29.87 in 10.0 mi SSW 18.4 mph 27.6 mph N/A   Scattered Clouds
7:30 PM 53.6 °F - 37.4 °F 54% 29.88 in 10.0 mi SSW 18.4 mph 21.9 mph N/A   Clear
7:50 PM 53.6 °F - 39.2 °F 58% 29.88 in 10.0 mi SSW 17.3 mph - N/A   Clear
8:10 PM 51.8 °F - 39.2 °F 62% 29.88 in 10.0 mi South 12.7 mph - N/A   Scattered Clouds
8:30 PM 51.8 °F - 39.2 °F 62% 29.88 in 10.0 mi South 11.5 mph - N/A   Clear
8:50 PM 50.0 °F - 39.2 °F 66% 29.89 in 10.0 mi South 15.0 mph - N/A   Clear
9:10 PM 50.0 °F - 39.2 °F 66% 29.90 in 10.0 mi South 15.0 mph - N/A   Clear
9:30 PM 50.0 °F - 39.2 °F 66% 29.91 in 10.0 mi South 15.0 mph 20.7 mph N/A   Clear
9:50 PM 50.0 °F - 41.0 °F 71% 29.92 in 10.0 mi South 11.5 mph - N/A   Clear
10:10 PM 48.2 °F - 41.0 °F 76% 29.92 in 10.0 mi SSE 17.3 mph - N/A   Clear
10:30 PM 48.2 °F - 42.8 °F 82% 29.93 in 10.0 mi South 13.8 mph - N/A   Clear
11:10 PM 46.4 °F 40.7 °F 42.8 °F 87% 29.93 in 10.0 mi South 12.7 mph - N/A   Clear
11:30 PM 46.4 °F 39.2 °F 42.8 °F 87% 29.93 in 10.0 mi South 18.4 mph 23.0 mph N/A   Clear
11:50 PM 46.4 °F 39.5 °F 42.8 °F 87% 29.93 in 10.0 mi South 17.3 mph 21.9 mph N/A   Clear